Heubes-Wetterstation in 44289 Dortmund
Heubes-Wetterstation

Messwerte der letzten 60 Minuten im Minuten-Intervall (Wetterstation 44289 Dortmund)

Datum & Uhrzeit Temp. Feucht. Wind-Ø Böen Sekt.  Regen Rate Luftdruck
29.05.2022 - 10:229.8 °C90%1 km/h 10 km/h W0.0 mm 0.0 mm 1014.1 hPa, gleichbleibend
29.05.2022 - 10:219.8 °C90%1 km/h 7 km/h W0.0 mm 0.0 mm 1014.1 hPa, gleichbleibend
29.05.2022 - 10:209.7 °C90%1 km/h 3 km/h SW0.0 mm 0.0 mm 1014.1 hPa, gleichbleibend
29.05.2022 - 10:199.8 °C90.3%1 km/h 1 km/h SW0.0 mm 0.0 mm 1014.1 hPa, langsam fallend
29.05.2022 - 10:189.8 °C91%1 km/h 1 km/h SW0.0 mm 0.0 mm 1014.2 hPa, gleichbleibend
29.05.2022 - 10:179.9 °C91.7%1 km/h 8 km/h SW0.0 mm 0.0 mm 1014.2 hPa, gleichbleibend
29.05.2022 - 10:169.8 °C92%1 km/h 10 km/h W-SW0.0 mm 0.0 mm 1014.2 hPa, gleichbleibend
29.05.2022 - 10:159.8 °C92%1 km/h 10 km/h SW0.0 mm 0.0 mm 1014.2 hPa, gleichbleibend
29.05.2022 - 10:149.8 °C91.5%1 km/h 5 km/h S-SW0.0 mm 0.8 mm 1014.2 hPa, gleichbleibend
29.05.2022 - 10:139.7 °C91%1 km/h 0 km/h SW0.0 mm 0.8 mm 1014.2 hPa, gleichbleibend
29.05.2022 - 10:129.7 °C91%1 km/h 0 km/h SW0.0 mm 0.8 mm 1014.2 hPa, gleichbleibend
29.05.2022 - 10:119.6 °C91%1 km/h 0 km/h SW0.0 mm 1.0 mm 1014.2 hPa, gleichbleibend
29.05.2022 - 10:109.6 °C91%1 km/h 0 km/h SW0.0 mm 1.0 mm 1014.2 hPa, gleichbleibend
29.05.2022 - 10:099.6 °C91%1 km/h 1 km/h SW0.0 mm 1.0 mm 1014.2 hPa, gleichbleibend
29.05.2022 - 10:089.6 °C90.5%1 km/h 10 km/h SW0.0 mm 1.2 mm 1014.2 hPa, gleichbleibend
29.05.2022 - 10:079.6 °C90%1 km/h 10 km/h W-SW0.0 mm 1.4 mm 1014.2 hPa, gleichbleibend
29.05.2022 - 10:069.5 °C89.5%0 km/h 10 km/h S-SW0.0 mm 1.6 mm 1014.2 hPa, langsam steigend
29.05.2022 - 10:059.5 °C89%0 km/h 7 km/h SW0.0 mm 1.6 mm 1014.1 hPa, gleichbleibend
29.05.2022 - 10:049.6 °C89%1 km/h 0 km/h W0.0 mm 2.0 mm 1014.1 hPa, gleichbleibend
29.05.2022 - 10:039.7 °C89%1 km/h 0 km/h W0.0 mm 2.6 mm 1014.1 hPa, gleichbleibend
29.05.2022 - 10:029.8 °C89%1 km/h 1 km/h W0.0 mm 3.4 mm 1014.1 hPa, gleichbleibend
29.05.2022 - 10:019.8 °C89%1 km/h 0 km/h W-SW0.0 mm 4.8 mm 1014.1 hPa, gleichbleibend
29.05.2022 - 10:009.8 °C88.5%1 km/h 3 km/h W-SW0.0 mm 5.4 mm 1014.1 hPa, gleichbleibend
29.05.2022 - 09:599.8 °C88%1 km/h 1 km/h W-SW0.0 mm 5.4 mm 1014.1 hPa, langsam fallend
29.05.2022 - 09:589.9 °C87%1 km/h 3 km/h W-SW0.2 mm 5.4 mm 1014.2 hPa, gleichbleibend
29.05.2022 - 09:579.9 °C87%1 km/h 7 km/h W-SW0.0 mm 0.0 mm 1014.2 hPa, gleichbleibend
29.05.2022 - 09:5610.1 °C87%1 km/h 3 km/h W-SW0.2 mm 0.0 mm 1014.2 hPa, gleichbleibend
29.05.2022 - 09:5510.2 °C87%1 km/h 1 km/h W-SW0.0 mm 0.0 mm 1014.2 hPa, gleichbleibend
29.05.2022 - 09:5410.3 °C87.7%1 km/h 14 km/h W0.0 mm 0.0 mm 1014.2 hPa, langsam steigend
29.05.2022 - 09:5310.4 °C88%1 km/h 10 km/h W0.0 mm 0.0 mm 1014.1 hPa, langsam fallend
29.05.2022 - 09:5210.5 °C88%1 km/h 7 km/h W-SW0.0 mm 0.0 mm 1014.2 hPa, gleichbleibend
29.05.2022 - 09:5110.5 °C88%1 km/h 1 km/h SW0.0 mm 0.0 mm 1014.2 hPa, gleichbleibend
29.05.2022 - 09:5010.5 °C88%1 km/h 3 km/h SW0.0 mm 0.0 mm 1014.2 hPa, gleichbleibend
29.05.2022 - 09:4910.4 °C88%1 km/h 11 km/h SW0.0 mm 0.0 mm 1014.2 hPa, gleichbleibend
29.05.2022 - 09:4810.4 °C89%1 km/h 10 km/h SW0.0 mm 0.0 mm 1014.2 hPa, gleichbleibend
29.05.2022 - 09:4710.4 °C88%1 km/h 1 km/h W0.0 mm 0.0 mm 1014.2 hPa, gleichbleibend
29.05.2022 - 09:4610.3 °C88%3 km/h 0 km/h W0.0 mm 0.0 mm 1014.2 hPa, gleichbleibend
29.05.2022 - 09:4510.3 °C88%3 km/h 0 km/h W0.0 mm 0.0 mm 1014.2 hPa, gleichbleibend
29.05.2022 - 09:4410.4 °C88.5%3 km/h 11 km/h W0.0 mm 0.0 mm 1014.2 hPa, gleichbleibend
29.05.2022 - 09:4310.5 °C89.5%3 km/h 7 km/h W-SW0.0 mm 0.0 mm 1014.3 hPa, gleichbleibend
29.05.2022 - 09:4210.5 °C90%3 km/h 10 km/h SW0.0 mm 0.0 mm 1014.3 hPa, gleichbleibend
29.05.2022 - 09:4110.3 °C90%3 km/h 10 km/h SW0.0 mm 0.0 mm 1014.2 hPa, gleichbleibend
29.05.2022 - 09:4010.3 °C90%3 km/h 10 km/h SW0.0 mm 0.0 mm 1014.3 hPa, gleichbleibend
29.05.2022 - 09:3910.2 °C90%3 km/h 5 km/h SW0.0 mm 0.0 mm 1014.2 hPa, gleichbleibend
29.05.2022 - 09:3810.2 °C90%2 km/h 7 km/h SW0.0 mm 0.0 mm 1014.2 hPa, gleichbleibend
29.05.2022 - 09:3710.1 °C90%1 km/h 13 km/h SW0.0 mm 0.0 mm 1014.2 hPa, gleichbleibend
29.05.2022 - 09:369.9 °C90%1 km/h 7 km/h SW0.0 mm 0.0 mm 1014.2 hPa, gleichbleibend
29.05.2022 - 09:359.9 °C90%1 km/h 11 km/h SW0.0 mm 0.0 mm 1014.2 hPa, gleichbleibend
29.05.2022 - 09:349.9 °C90%1 km/h 14 km/h SW0.0 mm 0.0 mm 1014.2 hPa, gleichbleibend
29.05.2022 - 09:339.9 °C90%0 km/h 11 km/h SW0.0 mm 0.0 mm 1014.3 hPa, gleichbleibend
29.05.2022 - 09:329.9 °C90%0 km/h 7 km/h W-SW0.0 mm 0.0 mm 1014.3 hPa, gleichbleibend
29.05.2022 - 09:319.8 °C90%1 km/h 1 km/h SW0.0 mm 0.0 mm 1014.3 hPa, gleichbleibend
29.05.2022 - 09:309.8 °C90%1 km/h 0 km/h SW0.0 mm 0.0 mm 1014.3 hPa, gleichbleibend
29.05.2022 - 09:299.8 °C90%1 km/h 0 km/h SW0.0 mm 0.0 mm 1014.3 hPa, gleichbleibend
29.05.2022 - 09:289.8 °C90%1 km/h 0 km/h SW0.0 mm 0.0 mm 1014.3 hPa, gleichbleibend
29.05.2022 - 09:279.8 °C90.5%1 km/h 0 km/h SW0.0 mm 0.0 mm 1014.3 hPa, gleichbleibend
29.05.2022 - 09:269.8 °C91%1 km/h 0 km/h SW0.0 mm 0.0 mm 1014.3 hPa, gleichbleibend
29.05.2022 - 09:259.8 °C91%1 km/h 0 km/h SW0.0 mm 0.0 mm 1014.3 hPa, gleichbleibend
29.05.2022 - 09:249.8 °C91%1 km/h 8 km/h SW0.0 mm 0.0 mm 1014.3 hPa, gleichbleibend
29.05.2022 - 09:239.8 °C91%1 km/h 8 km/h SW0.0 mm 0.0 mm 1014.3 hPa, gleichbleibend